This demonstration page uses our WeatherBlox Daily Observations layout. Learn more.

40.92945, -100.16068

Hourly Observations for December 14, 2015

Temp ( °F °C ) Dew Point ( °F °C ) Humidity (%) Winds ( mph kmh ) Pressure ( in mb ) Visibility ( mi km ) Precip ( " mm )
12:15 am 00:15 Cloudy 36 2 34 1 93 93 N 20 31 29.5 999 10 16.09344 0 0
12:35 am 00:35 Cloudy 36 2 34 1 93 93 NNW 17 28 29.5 999 10 16.09344 0 0
12:55 am 00:55 Cloudy 36 2 34 1 93 93 NNW 18 30 29.5 999 10 16.09344 0 0
1:15 am 01:15 Cloudy 36 2 34 1 93 93 NNW 18 30 29.5 999 10 16.09344 0 0
1:35 am 01:35 Cloudy 36 2 34 1 93 93 N 21 33 29.5 999 10 16.09344 0 0
1:55 am 01:55 Cloudy 36 2 32 0 87 87 NNW 18 30 29.47 998 10 16.09344 0 0
2:15 am 02:15 Cloudy 36 2 32 0 87 87 NNW 18 30 29.47 998 10 16.09344 0 0
2:35 am 02:35 Cloudy 36 2 32 0 87 87 NNW 18 30 29.47 998 10 16.09344 0 0
2:55 am 02:55 Cloudy 36 2 32 0 87 87 NNW 18 30 29.47 998 10 16.09344 0 0
3:15 am 03:15 Cloudy 36 2 32 0 87 87 NNW 16 26 29.5 999 10 16.09344 0 0
3:35 am 03:35 Cloudy 36 2 32 0 87 87 NNW 17 28 29.5 999 10 16.09344 0 0
3:55 am 03:55 Cloudy 34 1 32 0 93 93 NNW 14 22 29.53 1000 10 16.09344 0 0
4:15 am 04:15 Mostly Cloudy 34 1 32 0 93 93 N 17 28 29.53 1000 10 16.09344 0 0
4:35 am 04:35 Clear 34 1 32 0 93 93 NNW 17 28 29.53 1000 10 16.09344 0 0
4:55 am 04:55 Partly Cloudy 34 1 32 0 93 93 NNW 13 20 29.56 1001 10 16.09344 0 0
5:15 am 05:15 Partly Cloudy 34 1 32 0 93 93 NW 10 17 29.56 1001 10 16.09344 0 0
5:35 am 05:35 Mostly Cloudy 34 1 32 0 93 93 WNW 14 22 29.56 1001 10 16.09344 0 0
5:55 am 05:55 Partly Cloudy 34 1 30 -1 87 87 NW 16 26 29.56 1001 10 16.09344 0 0
6:15 am 06:15 Clear 34 1 30 -1 87 87 NW 14 22 29.56 1001 10 16.09344 0 0
6:35 am 06:35 Clear 32 0 30 -1 93 93 NNW 10 17 29.59 1002 10 16.09344 0 0
6:55 am 06:55 Clear 32 0 30 -1 93 93 NNW 12 19 29.59 1002 10 16.09344 0 0
7:15 am 07:15 Mostly Cloudy 32 0 30 -1 93 93 NNW 12 19 29.59 1002 10 16.09344 0 0
7:35 am 07:35 Cloudy 32 0 30 -1 93 93 NNW 14 22 29.59 1002 10 16.09344 0 0
7:55 am 07:55 Cloudy 34 1 30 -1 87 87 NNW 18 30 29.62 1003 10 16.09344 0 0
8:15 am 08:15 Cloudy 32 0 30 -1 93 93 NW 15 24 29.59 1002 10 16.09344 0 0
8:35 am 08:35 Cloudy 34 1 30 -1 87 87 NNW 18 30 29.59 1002 10 16.09344 0 0
8:55 am 08:55 Cloudy 34 1 30 -1 87 87 NW 18 30 29.62 1003 10 16.09344 0 0
9:15 am 09:15 Partly Cloudy 32 0 30 -1 93 93 NNW 9 15 29.59 1002 10 16.09344 0 0
9:35 am 09:35 Partly Cloudy 34 1 32 0 93 93 NW 10 17 29.62 1003 10 16.09344 0 0
9:55 am 09:55 Partly Cloudy 34 1 32 0 93 93 NW 15 24 29.62 1003 10 16.09344 0 0
10:15 am 10:15 Partly Cloudy 36 2 32 0 87 87 NW 15 24 29.65 1004 10 16.09344 0 0
10:35 am 10:35 Sunny 37 3 32 0 81 81 NW 16 26 29.62 1003 10 16.09344 0 0
10:55 am 10:55 Sunny 37 3 32 0 81 81 NNW 13 20 29.62 1003 10 16.09344 0 0
11:15 am 11:15 Sunny 39 4 32 0 75 75 NW 13 20 29.62 1003 10 16.09344 0 0
11:35 am 11:35 Sunny 39 4 32 0 75 75 NW 13 20 29.62 1003 10 16.09344 0 0
11:55 am 11:55 Sunny 39 4 32 0 75 75 NW 14 22 29.62 1003 10 16.09344 0 0
12:15 pm 12:15 Sunny 41 5 32 0 70 70 NW 13 20 29.62 1003 10 16.09344 0 0
12:35 pm 12:35 Sunny 41 5 32 0 70 70 NNW 14 22 29.62 1003 10 16.09344 0 0
12:55 pm 12:55 Sunny 43 6 32 0 66 66 NW 16 26 29.65 1004 10 16.09344 0 0
1:15 pm 13:15 Sunny 43 6 32 0 66 66 NNW 13 20 29.59 1002 10 16.09344 0 0
1:35 pm 13:35 Sunny 43 6 32 0 66 66 NW 14 22 29.65 1004 10 16.09344 0 0
1:55 pm 13:55 Sunny 45 7 32 0 61 61 NW 12 19 29.62 1003 10 16.09344 0 0
2:15 pm 14:15 Sunny 43 6 32 0 66 66 N 10 17 29.59 1002 10 16.09344 0 0
2:35 pm 14:35 Sunny 45 7 32 0 61 61 N 8 13 29.59 1002 10 16.09344 0 0
2:55 pm 14:55 Sunny 45 7 32 0 61 61 NNW 9 15 29.62 1003 10 16.09344 0 0
3:15 pm 15:15 Sunny 45 7 32 0 61 61 N 6 9 29.62 1003 10 16.09344 0 0
3:35 pm 15:35 Sunny 45 7 32 0 61 61 NE 7 11 29.62 1003 10 16.09344 0 0
3:55 pm 15:55 Sunny 43 6 32 0 66 66 NNE 8 13 29.65 1004 10 16.09344 0 0
4:15 pm 16:15 Sunny 43 6 32 0 66 66 NE 8 13 29.65 1004 10 16.09344 0 0
4:35 pm 16:35 Sunny 41 5 30 -1 66 66 NE 6 9 29.68 1005 10 16.09344 0 0
4:55 pm 16:55 Sunny 39 4 30 -1 70 70 E 8 13 29.68 1005 10 16.09344 0 0
5:15 pm 17:15 Clear 36 2 30 -1 81 81 ENE 9 15 29.71 1006 10 16.09344 0 0
5:35 pm 17:35 Clear 34 1 28 -2 81 81 ENE 6 9 29.71 1006 10 16.09344 0 0
5:55 pm 17:55 Clear 32 0 27 -3 80 80 ENE 9 15 29.74 1007 10 16.09344 0 0
6:15 pm 18:15 Clear 32 0 28 -2 87 87 ENE 10 17 29.74 1007 10 16.09344 0 0
6:35 pm 18:35 Clear 30 -1 28 -2 93 93 ENE 8 13 29.77 1008 10 16.09344 0 0
6:55 pm 18:55 Clear 30 -1 27 -3 86 86 ENE 9 15 29.74 1007 10 16.09344 0 0
7:15 pm 19:15 Mostly Cloudy 32 0 28 -2 87 87 ENE 9 15 29.77 1008 10 16.09344 0 0
7:35 pm 19:35 Cloudy 32 0 30 -1 93 93 ENE 15 24 29.74 1007 10 16.09344 0 0
7:55 pm 19:55 Cloudy 32 0 30 -1 93 93 ENE 12 19 29.77 1008 10 16.09344 0 0
8:15 pm 20:15 Cloudy 32 0 30 -1 93 93 ENE 15 24 29.77 1008 10 16.09344 0 0
8:35 pm 20:35 Cloudy 30 -1 28 -2 93 93 E 14 22 29.8 1009 10 16.09344 0 0
8:55 pm 20:55 Cloudy with Mist and Fog 30 -1 28 -2 93 93 ENE 12 19 29.8 1009 5 8.04672 0 0
9:15 pm 21:15 Cloudy with Mist and Fog 30 -1 28 -2 93 93 ENE 9 15 29.8 1009 1.25 2.01168 0 0
9:35 pm 21:35 Cloudy with Mist and Fog 30 -1 28 -2 93 93 ENE 9 15 29.8 1009 2 3.218688 0 0
9:55 pm 21:55 Cloudy with Mist and Fog 30 -1 28 -2 93 93 ENE 8 13 29.8 1009 1.25 2.01168 0 0
10:15 pm 22:15 Cloudy with Mist and Fog 30 -1 28 -2 93 93 E 10 17 29.8 1009 2 3.218688 0 0
10:35 pm 22:35 Cloudy with Mist and Fog 30 -1 28 -2 93 93 ENE 8 13 29.8 1009 3 4.828032 0 0
10:55 pm 22:55 Cloudy with Light Snow 30 -1 28 -2 93 93 ENE 9 15 29.8 1009 4 6.437376 0 0
11:15 pm 23:15 Cloudy with Mist and Fog 30 -1 28 -2 93 93 ENE 8 13 29.8 1009 5 8.04672 0 0
11:35 pm 23:35 Cloudy 30 -1 28 -2 93 93 E 7 11 29.8 1009 10 16.09344 0 0
11:55 pm 23:55 Cloudy with Mist and Fog 30 -1 30 -1 100 100 ENE 9 15 29.8 1009 5 8.04672 0 0

Powered by AerisWeather